Weather History for Emporia, VA

Change the Weather History Date:

Thursday, January 3, 2013

  Actual Average Record
Temperature  
Mean Temperature 32 °F -  
Max Temperature 37 °F 51 °F 73 °F (2004)
Min Temperature 26 °F 28 °F 18 °F (1984)
Degree Days  
Heating Degree Days 34    
Moisture  
Dew Point 30 °F    
Average Humidity 88    
Maximum Humidity 100    
Minimum Humidity 70    
Precipitation  
Precipitation 0.00 in - - ()
Sea Level Pressure  
Sea Level Pressure 30.23 in    
Wind  
Wind Speed 2 mph (North)    
Max Wind Speed 5 mph    
Max Gust Speed -    
Visibility 9 miles    
Events      
Averages and records for this station are not official NWS values.
T = Trace of Precipitation, MM = Missing Value Source: NWS Daily Summary

Daily Weather History Graph

Daily Weather History Graph

Search for Another Location

Airport:

Trip Planner

Search our weather history database for the weather conditions in past years. The results will help you decide how hot, cold, wet, or windy it might be!

Date:

Astronomy

Jan. 03, 2013 Rise Set
Actual Time 7:22 AM EST 5:06 PM EST
Civil Twilight 6:54 AM EST 5:35 PM EST
Nautical Twilight 6:21 AM EST 6:07 PM EST
Astronomical Twilight 5:50 AM EST 6:39 PM EST
Moon 11:28 PM EST (1/3) 10:43 AM EST (1/3)
Length of Visible Light 10h 41m
Length of Day
9h 43m
Waning Gibbous, 65% of the Moon is Illuminated
Jan 3
Waning Gibbous
Jan 4
Last Quarter
Jan 11
New
Jan 18
First Quarter
Jan 26
Full

Hourly Weather History & Observations

Time (EST) Temp. Windchill Dew Point Humidity Pressure Visibility Wind Dir Wind Speed Gust Speed Precip Events Conditions
12:15 AM 33.8 °F 30.8 °F 33.8 °F 100% 30.23 in - NNE 3.5 mph - N/A   Unknown
12:35 AM 35.6 °F 32.8 °F 35.6 °F 100% 30.22 in 5.0 mi North 3.5 mph - N/A   Clear
12:55 AM 33.8 °F - 33.8 °F 100% 30.21 in 5.0 mi Calm Calm - N/A   Clear
1:15 AM 33.8 °F 30.8 °F 33.8 °F 100% 30.21 in 5.0 mi North 3.5 mph - N/A   Clear
1:35 AM 33.8 °F 30.8 °F 33.8 °F 100% 30.23 in 7.0 mi North 3.5 mph - N/A   Clear
1:55 AM 33.8 °F - 33.8 °F 100% 30.22 in - Calm Calm - N/A   Unknown
2:15 AM 33.8 °F 30.8 °F 33.8 °F 100% 30.22 in - North 3.5 mph - N/A   Unknown
2:35 AM 33.8 °F 29.6 °F 33.8 °F 100% 30.22 in 7.0 mi North 4.6 mph - N/A   Clear
2:55 AM 33.8 °F 30.8 °F 33.8 °F 100% 30.22 in 7.0 mi North 3.5 mph - N/A   Clear
3:15 AM 33.8 °F - 32.0 °F 93% 30.22 in 10.0 mi Calm Calm - N/A   Clear
3:35 AM 33.8 °F - 32.0 °F 93% 30.21 in 10.0 mi Calm Calm - N/A   Clear
3:55 AM 33.8 °F 30.8 °F 32.0 °F 93% 30.21 in - NNE 3.5 mph - N/A   Unknown
4:15 AM 33.8 °F - 32.0 °F 93% 30.22 in 10.0 mi Calm Calm - N/A   Mostly Cloudy
4:35 AM 33.8 °F 30.8 °F 32.0 °F 93% 30.22 in 10.0 mi NNE 3.5 mph - N/A   Mostly Cloudy
4:55 AM 33.8 °F 30.8 °F 32.0 °F 93% 30.22 in - North 3.5 mph - N/A   Overcast
5:15 AM 33.8 °F - 32.0 °F 93% 30.22 in 10.0 mi Calm Calm - N/A   Overcast
5:35 AM 33.8 °F 30.8 °F 32.0 °F 93% 30.22 in 10.0 mi NNE 3.5 mph - N/A   Overcast
5:55 AM 33.8 °F 29.6 °F 30.2 °F 87% 30.22 in 10.0 mi NNE 4.6 mph - N/A   Overcast
6:15 AM 33.8 °F 30.8 °F 30.2 °F 87% 30.24 in 10.0 mi NNE 3.5 mph - N/A   Overcast
6:35 AM 33.8 °F - 30.2 °F 87% 30.24 in - Calm Calm - N/A   Overcast
6:55 AM 32.0 °F 28.7 °F 30.2 °F 93% 30.23 in 10.0 mi NNE 3.5 mph - N/A   Overcast
7:15 AM 32.0 °F - 30.2 °F 93% 30.25 in - Calm Calm - N/A   Overcast
7:35 AM 33.8 °F - 28.4 °F 81% 30.26 in - Calm Calm - N/A   Overcast
7:55 AM 32.0 °F 28.7 °F 28.4 °F 87% 30.25 in 10.0 mi North 3.5 mph - N/A   Overcast
8:35 AM 32.0 °F 27.5 °F 28.4 °F 87% 30.25 in 10.0 mi North 4.6 mph - N/A   Overcast
8:55 AM 33.8 °F 29.6 °F 26.6 °F 75% 30.26 in 10.0 mi North 4.6 mph - N/A   Overcast
9:15 AM 33.8 °F 30.8 °F 26.6 °F 75% 30.27 in 10.0 mi NNE 3.5 mph - N/A   Overcast
9:35 AM 33.8 °F 29.6 °F 26.6 °F 75% 30.27 in - North 4.6 mph - N/A   Overcast
9:55 AM 33.8 °F 30.8 °F 26.6 °F 75% 30.27 in 10.0 mi North 3.5 mph - N/A   Overcast
10:15 AM 33.8 °F 29.6 °F 28.4 °F 81% 30.28 in 10.0 mi North 4.6 mph - N/A   Overcast
10:35 AM 33.8 °F 30.8 °F 28.4 °F 81% 30.27 in - North 3.5 mph - N/A   Overcast
10:55 AM 33.8 °F - 26.6 °F 75% 30.27 in 10.0 mi Calm Calm - N/A   Overcast
11:15 AM 35.6 °F - 28.4 °F 75% 30.26 in 10.0 mi Calm Calm - N/A   Overcast
11:35 AM 35.6 °F - 28.4 °F 75% 30.24 in 10.0 mi Calm Calm - N/A   Overcast
11:55 AM 35.6 °F - 28.4 °F 75% 30.23 in 10.0 mi Calm Calm - N/A   Overcast
12:15 PM 35.6 °F - 28.4 °F 75% 30.21 in 10.0 mi Calm Calm - N/A   Mostly Cloudy
12:35 PM 37.4 °F - 28.4 °F 70% 30.21 in 10.0 mi Calm Calm - N/A   Overcast
12:55 PM 37.4 °F - 28.4 °F 70% 30.21 in 10.0 mi Calm Calm - N/A   Overcast
1:15 PM 37.4 °F - 28.4 °F 70% 30.20 in 10.0 mi Calm Calm - N/A   Overcast
1:35 PM 37.4 °F - 28.4 °F 70% 30.20 in 10.0 mi Calm Calm - N/A   Overcast
1:55 PM 37.4 °F - 28.4 °F 70% 30.20 in 10.0 mi Calm Calm - N/A   Overcast
2:15 PM 37.4 °F - 28.4 °F 70% 30.20 in 10.0 mi Calm Calm - N/A   Overcast
2:35 PM 37.4 °F 34.9 °F 30.2 °F 75% 30.20 in 10.0 mi NE 3.5 mph - N/A   Overcast
2:55 PM 37.4 °F 34.9 °F 28.4 °F 70% 30.20 in 10.0 mi NE 3.5 mph - N/A   Overcast
3:15 PM 37.4 °F 34.9 °F 30.2 °F 75% 30.21 in - West 3.5 mph - N/A   Overcast
3:35 PM 37.4 °F - 28.4 °F 70% 30.21 in 10.0 mi Calm Calm - N/A   Overcast
3:55 PM 37.4 °F - 28.4 °F 70% 30.22 in 10.0 mi Calm Calm - N/A   Overcast
4:15 PM 37.4 °F - 30.2 °F 75% 30.21 in - Calm Calm - N/A   Overcast
4:35 PM 37.4 °F - 30.2 °F 75% 30.22 in 10.0 mi Calm Calm - N/A   Overcast
4:55 PM 37.4 °F - 30.2 °F 75% 30.22 in - Calm Calm - N/A   Scattered Clouds
5:15 PM 33.8 °F - 32.0 °F 93% 30.22 in - Calm Calm - N/A   Unknown
5:35 PM 33.8 °F - 32.0 °F 93% 30.23 in 10.0 mi Calm Calm - N/A   Clear
5:55 PM 32.0 °F - 32.0 °F 100% 30.24 in - Calm Calm - N/A   Unknown
6:15 PM 32.0 °F - 30.2 °F 93% 30.24 in 10.0 mi Calm Calm - N/A   Clear
6:35 PM 32.0 °F - 30.2 °F 93% 30.24 in 10.0 mi Calm Calm - N/A   Clear
6:55 PM 32.0 °F - 30.2 °F 93% 30.24 in 10.0 mi Calm Calm - N/A   Clear
7:15 PM 30.2 °F - 30.2 °F 100% 30.25 in - Calm Calm - N/A   Unknown
7:35 PM 30.2 °F - 30.2 °F 100% 30.26 in 10.0 mi Calm Calm - N/A   Clear
7:55 PM 30.2 °F - 30.2 °F 100% 30.25 in 10.0 mi Calm Calm - N/A   Clear
8:15 PM 28.4 °F - 28.4 °F 100% 30.25 in 7.0 mi Calm Calm - N/A   Clear
8:35 PM 28.4 °F - 28.4 °F 100% 30.25 in 10.0 mi Calm Calm - N/A   Clear
8:55 PM 28.4 °F - 28.4 °F 100% 30.25 in 5.0 mi Calm Calm - N/A   Clear
9:15 PM 26.6 °F - 26.6 °F 100% 30.25 in 1.0 mi Calm Calm - N/A   Mist
9:35 PM 26.6 °F - 26.6 °F 100% 30.25 in 1.5 mi Calm Calm - N/A   Mist
9:55 PM 26.6 °F - 26.6 °F 100% 30.26 in 0.8 mi Calm Calm - N/A   Mist
10:15 PM 26.6 °F - 26.6 °F 100% 30.26 in 1.2 mi Calm Calm - N/A   Mist
10:35 PM 28.4 °F - 28.4 °F 100% 30.26 in 2.5 mi Calm Calm - N/A   Clear
10:55 PM 26.6 °F - 26.6 °F 100% 30.26 in 10.0 mi Calm Calm - N/A   Clear
11:15 PM 26.6 °F - 26.6 °F 100% 30.26 in 7.0 mi Calm Calm - N/A   Clear
11:35 PM 26.6 °F - 26.6 °F 100% 30.25 in - Calm Calm - N/A   Unknown
11:55 PM 26.6 °F - 26.6 °F 100% 30.25 in 10.0 mi Calm Calm - N/A   Clear